This demonstration page uses our WeatherBlox Daily Observations layout. Learn more.

36.17497, -115.13722

Hourly Observations for May 4, 2015

Temp ( °F °C ) Dew Point ( °F °C ) Humidity (%) Winds ( mph kmh ) Pressure ( in mb ) Visibility ( mi km ) Precip ( " mm )
12:53 am 00:53 Clear 74 23.3 25 -3.9 16 16 SSW 5 7 29.75 1007 10 16.0934 0 0
1:53 am 01:53 Mostly Cloudy 70 21.1 26 -3.3 19 19 N 3 6 29.75 1008 10 16.0934 0 0
2:53 am 02:53 Clear 69 20.6 28 -2.2 22 22 WNW 6 9 29.75 1008 10 16.0934 0 0
3:53 am 03:53 Clear 67 19.4 28 -2.2 23 23 N 7 11 29.75 1008 10 16.0934 0 0
4:53 am 04:53 Clear 67 19.4 26 -3.3 21 21 NW 5 7 29.76 1008 10 16.0934 0 0
5:53 am 05:53 Sunny 66 18.9 27 -2.8 23 23 N 7 11 29.78 1008 10 16.0934 0 0
6:53 am 06:53 Sunny 67 19.4 28 -2.2 23 23 N 5 7 29.8 1009 10 16.0934 0 0
7:53 am 07:53 Mostly Sunny 74 23.3 34 1.1 23 23 ESE 7 11 29.82 1010 10 16.0934 0 0
8:53 am 08:53 Partly Cloudy 77 25 38 3.3 24 24 ESE 16 26 29.83 1010 10 16.0934 0 0
9:53 am 09:53 Sunny 80 26.7 37 2.8 21 21 E 20 31 29.84 1011 10 16.0934 0 0
10:53 am 10:53 Mostly Sunny 78 25.6 40 4.4 26 26 SE 14 22 29.85 1011 10 16.0934 0 0
11:53 am 11:53 Sunny 79 26.1 41 5 26 26 SE 15 24 29.85 1011 10 16.0934 0 0
12:53 pm 12:53 Sunny 80 26.7 44 6.7 28 28 SSE 22 35 29.83 1010 10 16.0934 0 0
1:53 pm 13:53 Sunny 78 25.6 46 7.8 32 32 SSE 21 33 29.82 1010 10 16.0934 0 0
2:53 pm 14:53 Sunny 75 23.9 45 7.2 34 34 SSW 14 22 29.82 1010 10 16.0934 0 0
3:53 pm 15:53 Sunny 74 23.3 40 4.4 29 29 SSW 9 15 29.8 1009 10 16.0934 0 0
4:53 pm 16:53 Sunny 75 23.9 37 2.8 25 25 SSE 10 17 29.77 1008 10 16.0934 0 0
5:53 pm 17:53 Mostly Cloudy 75 23.9 38 3.3 26 26 E 9 15 29.8 1009 10 16.0934 0 0
6:53 pm 18:53 Mostly Sunny 73 22.8 43 6.1 34 34 ESE 12 19 29.82 1010 10 16.0934 0 0
7:53 pm 19:53 Partly Cloudy 72 22.2 42 5.6 34 34 Calm 29.81 1010 10 16.0934 0 0
8:53 pm 20:53 Mostly Clear 72 22.2 42 5.6 34 34 SSW 10 17 29.79 1009 10 16.0934 0 0
9:53 pm 21:53 Clear 71 21.7 41 5 34 34 SE 10 17 29.8 1009 10 16.0934 0 0
10:53 pm 22:53 Cloudy 69 20.6 42 5.6 38 38 E 6 9 29.83 1010 10 16.0934 0 0
11:53 pm 23:53 Cloudy with Light Rain 69 20.6 43 6.1 39 39 S 7 11 29.86 1011 10 16.0934 0 0.0254

Powered by AerisWeather